FENGYUN 1C DEB, 30876

Orbit data source: Space-Track

FENGYUN 1C DEB, 30876 is space debris in SSO originally from a launch on Mon, 10 May 1999 UTC launched from the Taiyaun Space Center, China (TSC). Fengyun 1C debris stems from the Chinese weather satellite Fengyun-1C, which was intentionally destroyed by a Chinese anti-satellite missile in 2007. This event dramatically increased the amount of space debris, with thousands of trackable fragments posing hazards to satellites and human spaceflight. The Fengyun 1C debris cloud has become a focal point in discussions about space sustainability and the need for international regulations to prevent the creation of new debris.

Loading next visibility...
Identifier
30876, 1999-025AXN
Orbit
SSO
Country
Flag of CNCN / PRC
Related business
Manufacturer
Unknown
Mission
Spacecraft
Bus & Motor
Unknown
Mass
Unknown
Launch date (UTC)
1999-05-10 (27 years ago)
Launch vehicle
Unknown
Launch site
Taiyaun Space Center, China (TSC)
Object type
Payload
Rocket body
Debris
Shape & HBR
Unknown shape, 0.1 m
Radar Cross Section
Small (<0.1 m²)

Expand to show TLE details & history
Last TLE update: 1 day ago

TLE from 1 day ago
0 FENGYUN 1C DEB
1 30876U 99025AXN 25351.24928568  .00000669  00000-0  48196-3 0  9991
2 30876  98.8104 336.1560 0066301 264.9068 110.9745 13.99173817957738
Epoch: 2025-12-17T05:58Z
TLE epoch observation values (Epoch: 2025-12-17T05:58:58.282Z)
Latitude
16.3708°
Longitude
157.69531°
Altitude
916.439 km
Speed
7.386 km/s
True Right ascension
22h 14m 14s
True Declination
16° 16' 48"
Sunlit
Object was in daylight at epoch
Visualization orbit readout
Latitude
Unknown
Longitude
Unknown
Altitude
Unknown
Speed
Unknown
Apparent Right ascension
Unknown
Apparent Declination
Unknown
Sunlit
N/A
Visualization observer readout
Local Sidereal Time
13:15:00
Azimuth
Unknown
Elevation
Unknown
Doppler factor
Unknown
Orbital elements
Apogee altitude
942.063 km
Perigee altitude
845.635 km
Semi-major axis
7,271.986 km
Eccentricity
0.00663
Inclination
98.8104°
RAAN
336.156°
Arg. of periapsis
264.9068°
True anomaly
111.6818°
Mean anomaly
110.9745°
Eccentric anomaly
111.32836°
Mean motion
3.49996 °/min
Orbital period
102.86 mins
BSTAR
0.00048196
Loading maneuver chart data...
Computing Atmospheric mass density...

Documentation

Showing up to 5 results
|